Home > Weather > Königswinter > Past weeks

Flag for Germany Past Weather in Königswinter, North Rhine-Westphalia, Germany — Yesterday and Last 2 Weeks

Now
63 °F

Overcast.


Feels Like: 63 °F
Forecast: 55 / 71 °F
Wind: 5 mph from Northeast

Location: Aachen-Orsbach

Current Time: May 26, 2016 at 10:25:37 PM

Latest Report: May 26, 2016 at 10:00 PM


Visibility: 14 mi

Pressure: 29.96 "Hg

Humidity: 62%

Dew Point: 50 °F

Location of KönigswinterLocation

Past Weather in Königswinter — Graph

°F

Königswinter Temperature Yesterday

Maximum temperature yesterday: 58 °F (at 7:00 PM)
Minimum temperature yesterday: 45 °F (at 6:00 AM)
Average temperature yesterday: 51 °F

High & Low Weather Summary for the Past Weeks

 TemperatureHumidityPressure
High72 °F (May 21, 6:00 PM)97% (May 23, 6:00 AM)30.17 "Hg (May 23, 6:00 AM)
Low39 °F (May 15, 12:00 AM)33% (May 13, 7:00 PM)29.44 "Hg (May 12, 6:00 PM)
Average55 °F73%29.90 "Hg
* Reported May 11 9:00 PM — May 26 9:00 PM, Königswinter, Weather by CustomWeather, © 2016

Note: Actual official high and low records may vary slightly from our data, if they occured in-between our weather recording intervals... More about our weather records

Advertising

Königswinter Weather History for the Previous 24 Hours

Scroll right to see more
 ConditionsComfort  
Time TempWeatherWind HumidityBarometerVisibility
9:00 PM
Thu, May 26
65 °FOvercast.3 mph58%29.96 "Hg14 mi
7:00 PM67 °FOvercast.3 mph62%29.95 "Hg11 mi
6:00 PM67 °FOvercast.5 mph59%29.96 "Hg8 mi
4:00 PM68 °FPartly sunny.2 mph53%29.97 "Hg12 mi
3:00 PM67 °FScattered clouds.3 mph54%29.98 "Hg12 mi
1:00 PM65 °FScattered clouds.3 mph64%30.00 "Hg11 mi
12:00 PM64 °FScattered clouds.2 mph62%30.00 "Hg11 mi
10:00 AM60 °FPassing clouds.2 mph69%30.01 "Hg11 mi
9:00 AM59 °FPassing clouds.1 mph74%30.01 "Hg11 mi
7:00 AM50 °FPassing clouds.2 mph90%30.01 "Hg11 mi
6:00 AM47 °FPassing clouds.1 mph94%30.01 "Hg8 mi
4:00 AM48 °FClear.No wind94%30.01 "Hg2 mi
3:00 AM51 °FOvercast.2 mph91%30.01 "Hg3 mi
1:00 AM52 °FOvercast.2 mph91%30.01 "Hg3 mi
12:00 AM53 °FOvercast.2 mph85%30.01 "Hg4 mi
10:00 PM
Wed, May 25
54 °FOvercast.2 mph85%30.00 "Hg4 mi
Weather by CustomWeather, © 2016

See weather overviewHow to use our weather pages